User: anonymous   Login
Location: Eurasberg
(48.3353°N, 11.0839°E)
Time: 01:35:27
(UTC+00:00)
Language:

Meteor 1-16 Rocket - Orbit

View from above orbital plane
View from above orbital plane
View from above satellite
View from above satellite

Ground track
Ground track

The orbit is defined by the following mean orbital elements,

1 07210U          26070.77286469 +.00000000 +00000-0 +80883-4 0 00008
2 07210  81.2390 163.6704 0079436 305.7166  53.6633 14.13624944    03
Epoch (UTC): 11 March 2026 18:32:55
Eccentricity: 0.0079436
inclination: 81.2390°
perigee height: 790 km
apogee height: 904 km
right ascension of ascending node: 163.6704°
argument of perigee: 305.7166°
revolutions per day: 14.13624944
mean anomaly at epoch: 53.6633°

The dashed part of the orbit path shows where the satellite is in the earth's shadow,  

DLR